This is the latest recevied weather packets stored in our database for station/object KF6YUA. If no packets are shown the sender has not sent any weather packets the latest 10 day(s).
| Time | Temp. | Humidity | Pressure | Rain* | Wind** | Luminosity | Snow |
|---|---|---|---|---|---|---|---|
| 1777862334 | 12.78° C | 88% | 1015.3 hPa | 0 mm | - | 2 W/m² | - |
| 1777862030 | 12.78° C | 87% | 1014.9 hPa | 0 mm | - | 9 W/m² | - |
| 1777861725 | 13.33° C | 87% | 1015.1 hPa | 0 mm | - | 11 W/m² | - |
| 1777861423 | 13.33° C | 86% | 1014.9 hPa | 0 mm | - | 12 W/m² | - |
| 1777861119 | 13.33° C | 86% | 1014.9 hPa | 0 mm | - | 15 W/m² | - |
| 1777860817 | 13.33° C | 85% | 1015 hPa | 0 mm | - | 15 W/m² | - |
| 1777860514 | 13.89° C | 84% | 1015.1 hPa | 0 mm | - | 15 W/m² | - |
| 1777860211 | 13.89° C | 84% | 1015 hPa | 0 mm | - | 12 W/m² | - |
| 1777859907 | 13.89° C | 83% | 1015.1 hPa | 0 mm | - | 18 W/m² | - |
| 1777859603 | 13.89° C | 82% | 1015.2 hPa | 0 mm | - | 26 W/m² | - |
| 1777859299 | 13.89° C | 83% | 1015.2 hPa | 0 mm | - | 32 W/m² | - |
| 1777858995 | 14.44° C | 82% | 1015 hPa | 0 mm | - | 34 W/m² | - |
| 1777858694 | 14.44° C | 80% | 1015 hPa | 0 mm | - | 35 W/m² | - |
| 1777858391 | 15° C | 80% | 1014.9 hPa | 0 mm | - | 54 W/m² | - |
| 1777858087 | 15° C | 78% | 1014.9 hPa | 0 mm | - | 66 W/m² | - |
| 1777857785 | 15.56° C | 76% | 1014.8 hPa | 0 mm | - | 73 W/m² | - |
| 1777857483 | 16.11° C | 77% | 1014.9 hPa | 0 mm | - | 67 W/m² | - |
| 1777857179 | 16.11° C | 76% | 1015 hPa | 0 mm | - | 137 W/m² | - |
| 1777856874 | 15° C | 77% | 1015 hPa | 0 mm | - | 138 W/m² | - |
| 1777856570 | 15° C | 79% | 1015.1 hPa | 0 mm | - | 81 W/m² | - |
| 1777856267 | 15° C | 78% | 1015.2 hPa | 0 mm | - | 91 W/m² | - |
| 1777855964 | 15° C | 79% | 1015.1 hPa | 0 mm | - | 103 W/m² | - |
| 1777855662 | 15.56° C | 78% | 1015 hPa | 0 mm | - | 100 W/m² | - |
| 1777855359 | 15.56° C | 80% | 1015.2 hPa | 0 mm | - | 187 W/m² | - |
| 1777855055 | 15.56° C | 79% | 1015.2 hPa | 0 mm | - | 105 W/m² | - |
* Rain latest hour (hover to see other rain measurements)
** Current wind speed in m/s (hover to see current wind gust speed)